116  
ASUS44 KFWD 181715  
RWRTX  
NORTH TEXAS HOURLY WEATHER ROUNDUP  
NATIONAL WEATHER SERVICE FORT WORTH TX  
1200 PM CDT SUN AUG 18 2019  
 
NOTE: "FAIR" INDICATES FEW OR NO CLOUDS BELOW 12,000 FEET WITH NO  
SIGNIFICANT WEATHER AND/OR S TO VISIBILITY
.  
 
TXZ118-119-181800-  
DALLAS/FORT WORTH METROPLEX  
 
CITY SKY/WX TMP DP RH WIND PRES REMARKS
 
DFW AIRPORT FAIR 92 71 50 S13 29.89S HX 98  
DALLAS LOVE FAIR 92 70 48 S12G23 29.90F HX 97  
FTW MEACHAM FAIR 90 71 53 S12G21 29.89F HX 96  
DAL-EXECUTIVE FAIR 93 71 48 S12 29.90F HX 100  
FTW-ALLIANCE FAIR 92 71 50 S15 29.89F HX 98  
FTW-NAS-JRB FAIR 94 69 44 S14 29.90S HX 99  
FTW-SPINKS SUNNY 93 70 46 S13 29.92S HX 99  
ARLINGTON FAIR 92 71 50 S10G18 29.91S HX 98  
GRAND PRAIRIE SUNNY 91 70 49 S10G17 29.92S HX 97  
ADDISON SUNNY 91 70 49 S10G17 29.91F HX 97  
MESQUITE MOSUNNY 90 72 55 S22 29.92S HX 96  
LANCASTER FAIR 91 72 54 S15 29.92S HX 98  

 
 
TXZ091>094-102>105-117-120-121-131>134-181800-  
NORTH CENTRAL TEXAS  
 
CITY SKY/WX TMP DP RH WIND PRES REMARKS
 
SHRMAN/DENISON SUNNY 91 73 55 S15 29.91F HX 100  
GAINESVILLE FAIR 92 70 47 S12 29.92R HX 97  
BOWIE FAIR 91 72 52 S12G21 29.89F HX 98  
BRIDGEPORT FAIR 92 68 44 S9G16 29.91S HX 96  
DECATUR FAIR 91 69 48 S12G18 29.91S HX 96  
DENTON FAIR 91 71 51 S14G21 29.90S HX 97  
MCKINNEY FAIR 92 70 48 S13G20 29.91R HX 97  
BONHAM FAIR 91 74 56 S14 29.93S HX 100  
GREENVILLE FAIR 95 70 43 S12 29.94R HX 101  
ROCKWALL FAIR 90 73 56 SW15 29.92S HX 98  
WAXAHACHIE FAIR 91 72 52 S12 29.93S HX 98  
CLEBURNE FAIR 91 70 49 S13G21 29.93S HX 97  
GRANBURY FAIR 93 67 42 S9 29.91R HX 97  

 
 
TXZ083>090-098>101-113>116-127>130-139>142-154-155-181800-  
WESTERN NORTH TEXAS  
 
CITY SKY/WX TMP DP RH WIND PRES REMARKS
 
WICHITA FALLS FAIR 96 72 45 S17 29.85S HX 104  
WF-KICKAPOO FAIR 95 71 45 S13G25 29.88S HX 101  
VERNON FAIR 95 69 42 SW9 29.86R HX 100  
ABILENE NOT AVBL  
ABILENE-DYESS FAIR 96 62 32 S18 29.88S HX 96  
GRAHAM FAIR 95 68 41 S8G18 29.87R HX 99  
BRECKENRIDGE FAIR 96 62 32 SW12 29.88S HX 97  
CISCO FAIR 93 64 38 S13G20 29.91S HX 95  
EASTLAND FAIR 92 66 41 S15G21 29.90S HX 95  
RANGER FAIR 92 64 39 S12G17 29.91S HX 94  
MINERAL WELLS FAIR 94 66 39 SE14 29.88S HX 97  
STEPHENVILLE FAIR 92 64 38 SW13G21 29.94S HX 94  
COMANCHE FAIR 94 66 39 S13G21 29.92S HX 97  
BROWNWOOD FAIR 93 64 38 S8G18 29.91S HX 95  
COLEMAN FAIR 95 61 32 S15 29.92S HX 95  
BRADY FAIR 91 64 40 S15G21 29.92F HX 93  

 
 
TXZ143>147-156>162-174-175-181800-  
CENTRAL TEXAS  
 
CITY SKY/WX TMP DP RH WIND PRES REMARKS
 
WACO FAIR 93 71 48 S14 29.91S HX 100  
WACO-TSTC SUNNY 93 72 49 S14G23 29.91S HX 100  
WACO-MCGREGOR FAIR 94 73 50 SE15G22 29.91S HX 103  
HILLSBORO FAIR 91 72 54 S14G21 29.92R HX 98  
CORSICANA FAIR 93 73 52 S15 29.94R HX 102  
MEXIA FAIR 91 72 54 S15G29 29.92S HX 98  
HEARNE FAIR 93 76 57 S12G17 29.93S HX 104  
CAMERON FAIR 93 70 46 S12G18 29.92S HX 99  
TEMPLE FAIR 93 73 52 S18G24 29.91S HX 102  
KILLEEN FAIR 91 67 43 S16 29.91S HX 94  
KILLEEN-SKYLRK FAIR 93 71 48 MISG 29.92S HX 100  
FORT HOOD FAIR 91 70 49 S15 29.87S HX 96  
GATESVILLE FAIR 91 68 46 SE7G15 29.93S HX 95  
HAMILTON FAIR 93 65 38 S15 29.94R HAZE HX 95  
LAMPASAS FAIR 92 67 44 S7 29.91S HX 95  

 
 
TXZ095>097-106>112-122>126-135>138-148>153-164>167-181800-  
EAST TEXAS  
 
CITY SKY/WX TMP DP RH WIND PRES REMARKS
 
PARIS FAIR 90 75 61 SW13G20 29.94S HX 100  
SULPHUR SPRNGS FAIR 92 73 53 SW9G16 29.96S HX 100  
MOUNT PLEASANT FAIR 91 71 52 SW12 29.96S HX 96  
GILMER PTSUNNY 89 73 58 SW7 29.95S HX 97  
MINEOLA FAIR 88 73 62 S7 29.95S HX 96  
TYLER FAIR 91 71 51 S12 29.95R HX 97  
LONGVIEW PTSUNNY 93 73 52 W14 29.94S HX 102  
MARSHALL FAIR 90 73 56 MISG 29.97S HX 98  
ATHENS CLOUDY 90 72 55 S9 29.93S HX 96  
PALESTINE FAIR 89 74 61 S9 29.96R HX 99  
JACKSONVILLE FAIR 89 73 58 MISG 29.98S HX 97  
HENDERSON FAIR 90 74 58 SW12G18 29.96F HX 98  
CENTER PTSUNNY 90 72 55 S9G18 29.97S HX 97  
NACOGDOCHES FAIR 93 76 57 S8 29.96S HX 105  
LUFKIN PTSUNNY 90 75 61 S7 29.94F HX 100  

 
 
SUPPLEMENTAL OBSERVATIONS (NWS FORT WORTH AREA)  
 
CITY SKY/WX TMP DP RH WIND PRES REMARKS
 
CADDO GRASSLND N/A 91 70 49 S12 N/A HX 97  
LBJ GRASSLAND N/A 91 70 49 S9 N/A HX 97  
POSSUM KINGDOM N/A 97 66 36 S12 N/A HX 100  
GRANBURY N/A 93 68 43 S10G20 N/A HX 97  
COMANCHE N/A 93 64 38 S14 N/A HX 95  
MCGREGOR N/A 93 68 43 S10 N/A HX 97  
TEMPLE N/A 90 72 55 S15G23 N/A HX 96  
LAKE LIMESTONE N/A 93 70 46 S14G22 N/A HX 99  
PALESTINE N/A 93 73 52 S6 N/A HX 102  

 
 
SUPPLEMENTAL OBSERVATIONS (NWS NORMAN AREA)  
 
CITY SKY/WX TMP DP RH WIND PRES REMARKS
 
GOODLETT N/A 98 63 31 SW9 29.84R HX 99  
ODELL N/A 94 69 43 S9 29.86F HX 99  
CROWELL N/A 100 68 36 SW10 29.84S HX 105  
KNOX CITY N/A 99 69 37 SW15 29.84F HX 104  
SEYMOUR N/A 98 68 37 S16 29.83S HX 103  
MILLERS CREEK N/A 97 72 44 S17G24 N/A HX 105  

 
 
SUPPLEMENTAL OBSERVATIONS (NWS SAN ANGELO AREA)  
 
CITY SKY/WX TMP DP RH WIND PRES REMARKS
 
WEINERT N/A 97 70 42 S13 29.85F HX 103  
HASKELL N/A 97 68 38 S14 29.85F HX 102  
THROCKMORTON N/A 99 69 37 S10 29.86S HX 105  
STAMFORD N/A 97 69 39 S14 29.87S HX 103  
CLYDE N/A 94 67 40 S16 29.92S HX 98  
HAMBY N/A 97 64 34 SW18G30 N/A HX 99  
IVIE RESERVOIR N/A 97 64 34 S15 N/A HX 99  
COLORADO BEND N/A 93 63 36 S10 N/A HX 94  

 
 
SUPPLEMENTAL OBSERVATIONS (NWS SHREVEPORT AREA)  
 
CITY SKY/WX TMP DP RH WIND PRES REMARKS
 
TEXARKANA N/A 91 75 59 W7G15 N/A HX 102  
LINDEN N/A 91 72 52 SW5 N/A HX 98  
CADDO LAKE N/A 93 72 49 W6 N/A HX 100  
LUFKIN N/A 93 75 55 MISG N/A HX 104  
N SABINE NF N/A 91 75 59 MISG N/A HX 102  

 
 
SUPPLEMENTAL OBSERVATIONS ARE A COLLECTION OF AUTOMATED INSTRUMENTS  
THAT ARE MAINTAINED BY A VARIETY OF FEDERAL AND STATE AGENCIES.  
CERTAIN ELEMENTS...SUCH AS HUMIDITY VALUES AND SUSTAINED WIND  
SPEEDS...MAY BE APPROXIMATED.  
 
 
 
CLICK HERE TO GO TO PREVIOUS BULLETINS.

The Nexlab TX Page Main Text Page